GW6934 Weather Reports


Display with metric or nautical units.
time (UTC)temp
F
wind
direction
speed
MPH
gust
MPH
rain 1hr
in
rain 24hr
in
rain mn
in
humidity
%
barometer
mb
20260509011826 61 160 0.0 0.0 0.00 0.00 0.00 51 1043.9
20260509011323 62 160 0.0 0.0 0.00 0.00 0.00 51 1043.9
20260509010821 62 160 1.0 1.0 0.00 0.00 0.00 54 1043.8
20260509010318 62 159 2.0 2.0 0.00 0.00 0.00 48 1043.8
20260509005815 62 166 2.0 2.0 0.00 0.00 0.00 46 1043.8
20260509005313 63 165 0.0 2.0 0.00 0.00 0.00 49 1043.7
20260509004808 63 152 2.0 3.0 0.00 0.00 0.00 46 1043.8
20260509004304 63 157 2.0 2.0 0.00 0.00 0.00 47 1043.9
20260509003802 64 168 2.0 2.0 0.00 0.00 0.00 48 1043.8
20260509003300 64 167 1.0 2.0 0.00 0.00 0.00 48 1043.7
20260509002757 64 167 2.0 2.0 0.00 0.00 0.00 46 1043.7
20260509002254 65 165 2.0 2.0 0.00 0.00 0.00 42 1043.7
20260509001752 65 161 1.0 2.0 0.00 0.00 0.00 43 1043.7
20260509001247 66 177 2.0 2.0 0.00 0.00 0.00 42 1043.8
20260509000745 66 161 2.0 3.0 0.00 0.00 0.00 39 1044.1
20260509000242 67 209 2.0 3.0 0.00 0.00 0.00 39 1043.9
20260508235739 67 225 4.0 4.0 0.00 0.00 0.00 38 1043.9
20260508235236 67 174 3.0 4.0 0.00 0.00 0.00 37 1044.1
20260508234733 67 214 2.0 4.0 0.00 0.00 0.00 39 1044.3
20260508234229 67 166 2.0 4.0 0.00 0.00 0.00 39 1044.2
20260508233729 67 155 5.0 7.0 0.00 0.00 0.00 36 1044.0
20260508233227 67 196 5.0 7.0 0.00 0.00 0.00 36 1044.0
20260508232724 68 213 2.0 6.0 0.00 0.00 0.00 38 1044.2
20260508232220 68 175 5.0 9.0 0.00 0.00 0.00 36 1044.1
20260508231718 69 218 3.0 4.0 0.00 0.00 0.00 37 1044.2
20260508231215 69 217 2.0 6.0 0.00 0.00 0.00 37 1044.3
20260508230712 69 232 4.0 10.0 0.00 0.00 0.00 34 1044.5
20260508230208 69 175 3.0 10.0 0.00 0.00 0.00 33 1044.4
20260508225706 70 169 4.0 8.0 0.00 0.00 0.00 34 1044.2
20260508225202 70 160 8.0 10.0 0.00 0.00 0.00 33 1044.1
20260508224700 70 155 4.0 9.0 0.00 0.00 0.00 33 1044.2
20260508224157 70 215 4.0 9.0 0.00 0.00 0.00 32 1044.2
20260508223655 71 212 6.0 10.0 0.00 0.00 0.00 32 1044.4
20260508223152 71 139 2.0 7.0 0.00 0.00 0.00 32 1044.2
20260508222649 71 218 4.0 9.0 0.00 0.00 0.00 33 1044.1
20260508222146 71 167 4.0 13.0 0.00 0.00 0.00 34 1044.1
20260508221642 71 226 6.0 13.0 0.00 0.00 0.00 31 1044.2
20260508221138 72 235 5.0 7.0 0.00 0.00 0.00 34 1043.9
20260508220635 72 208 4.0 6.0 0.00 0.00 0.00 32 1044.1
20260508220132 72 170 5.0 6.0 0.00 0.00 0.00 34 1044.0
20260508215628 72 232 6.0 9.0 0.00 0.00 0.00 30 1044.3
20260508215125 72 247 3.0 4.0 0.00 0.00 0.00 34 1044.2
20260508214622 72 222 4.0 8.0 0.00 0.00 0.00 33 1043.9
20260508214119 72 212 3.0 6.0 0.00 0.00 0.00 33 1044.4
20260508213616 72 215 6.0 8.0 0.00 0.00 0.00 30 1044.2
20260508213112 71 262 3.0 8.0 0.00 0.00 0.00 32 1044.0
20260508212609 71 193 5.0 8.0 0.00 0.00 0.00 31 1044.2
20260508212105 72 213 4.0 10.0 0.00 0.00 0.00 31 1044.1
20260508211600 72 217 4.0 6.0 0.00 0.00 0.00 31 1044.1
20260508211057 71 211 7.0 9.0 0.00 0.00 0.00 31 1044.3
20260508210553 72 134 4.0 10.0 0.00 0.00 0.00 31 1044.4
20260508210051 73 204 7.0 9.0 0.00 0.00 0.00 31 1044.3
20260508205548 72 216 4.0 6.0 0.00 0.00 0.00 33 1044.5
20260508205044 72 266 2.0 7.0 0.00 0.00 0.00 34 1044.7
20260508204541 71 161 5.0 7.0 0.00 0.00 0.00 30 1044.6
20260508204037 71 206 7.0 9.0 0.00 0.00 0.00 30 1044.8
20260508203533 72 232 6.0 8.0 0.00 0.00 0.00 34 1044.8
20260508203029 72 259 5.0 10.0 0.00 0.00 0.00 31 1044.9
20260508202526 71 228 3.0 9.0 0.00 0.00 0.00 35 1044.9
20260508202023 71 298 3.0 10.0 0.00 0.00 0.00 33 1045.4
20260508201520 71 100 4.0 11.0 0.00 0.00 0.00 30 1045.4
20260508201016 71 222 2.0 13.0 0.00 0.00 0.00 35 1045.5
20260508200514 71 212 9.0 14.0 0.00 0.00 0.00 30 1045.5
20260508200009 71 150 5.0 8.0 0.00 0.00 0.00 33 1045.4
20260508195506 71 197 8.0 15.0 0.00 0.00 0.00 35 1045.5
20260508195002 71 123 6.0 11.0 0.00 0.00 0.00 33 1045.5
20260508194459 71 177 4.0 9.0 0.00 0.00 0.00 35 1045.4
20260508193956 71 157 6.0 10.0 0.00 0.00 0.00 35 1045.4
20260508193453 71 225 5.0 11.0 0.00 0.00 0.00 34 1045.0
20260508192949 71 162 4.0 11.0 0.00 0.00 0.00 34 1045.4
20260508192446 71 223 4.0 10.0 0.00 0.00 0.00 36 1045.4
20260508191943 69 209 3.0 11.0 0.00 0.00 0.00 36 1045.5
20260508191440 69 139 8.0 9.0 0.00 0.00 0.00 32 1045.6
20260508190937 70 158 10.0 18.0 0.00 0.00 0.00 35 1045.8
20260508190434 70 152 6.0 14.0 0.00 0.00 0.00 36 1045.6
20260508185930 70 158 4.0 13.0 0.00 0.00 0.00 36 1045.8
20260508185428 69 206 4.0 6.0 0.00 0.00 0.00 35 1045.9
20260508184925 70 123 10.0 14.0 0.00 0.00 0.00 34 1045.9
20260508184423 70 213 4.0 11.0 0.00 0.00 0.00 36 1046.0
20260508183919 70 147 3.0 10.0 0.00 0.00 0.00 38 1046.0
20260508183416 69 127 8.0 11.0 0.00 0.00 0.00 34 1046.1
20260508182911 70 150 8.0 16.0 0.00 0.00 0.00 34 1046.3
20260508182409 69 169 4.0 10.0 0.00 0.00 0.00 37 1046.3
20260508181903 70 188 8.0 14.0 0.00 0.00 0.00 34 1046.7
20260508181401 69 167 5.0 9.0 0.00 0.00 0.00 34 1046.8
20260508180858 69 179 7.0 11.0 0.00 0.00 0.00 35 1046.9
20260508180354 69 345 7.0 13.0 0.00 0.00 0.00 35 1047.0
20260508175850 69 149 7.0 10.0 0.00 0.00 0.00 36 1047.0
20260508175347 69 235 5.0 8.0 0.00 0.00 0.00 33 1047.1
20260508174846 69 156 9.0 11.0 0.00 0.00 0.00 34 1047.1
20260508174343 69 183 11.0 15.0 0.00 0.00 0.00 34 1047.3
20260508173839 68 202 6.0 9.0 0.00 0.00 0.00 34 1047.4
20260508173336 69 163 7.0 9.0 0.00 0.00 0.00 34 1047.4
20260508172832 68 196 9.0 14.0 0.00 0.00 0.00 40 1047.5
20260508172329 69 230 5.0 9.0 0.00 0.00 0.00 38 1047.7
20260508171826 68 190 4.0 13.0 0.00 0.00 0.00 40 1047.8
20260508171322 68 169 3.0 8.0 0.00 0.00 0.00 39 1047.8
20260508170819 68 242 4.0 6.0 0.00 0.00 0.00 38 1047.7
20260508170317 68 168 8.0 10.0 0.00 0.00 0.00 36 1047.9
20260508165813 68 158 3.0 10.0 0.00 0.00 0.00 38 1048.2
20260508165311 68 144 6.0 14.0 0.00 0.00 0.00 38 1048.4
20260508164806 68 235 5.0 10.0 0.00 0.00 0.00 41 1048.4
20260508164303 67 145 2.0 3.0 0.00 0.00 0.00 40 1048.5
20260508163801 68 208 7.0 9.0 0.00 0.00 0.00 37 1048.8
20260508163259 68 250 1.0 7.0 0.00 0.00 0.00 43 1048.7
20260508162754 67 230 2.0 7.0 0.00 0.00 0.00 44 1048.7
20260508162251 67 230 3.0 8.0 0.00 0.00 0.00 40 1048.9
20260508161748 67 237 3.0 4.0 0.00 0.00 0.00 41 1048.9
20260508161245 67 268 6.0 7.0 0.00 0.00 0.00 39 1049.1
20260508160743 66 220 3.0 4.0 0.00 0.00 0.00 41 1049.2
20260508160242 67 228 4.0 9.0 0.00 0.00 0.00 40 1049.1
20260508155738 66 272 6.0 7.0 0.00 0.00 0.00 39 1049.3
20260508155235 66 277 4.0 6.0 0.00 0.00 0.00 45 1049.3
20260508154732 66 160 5.0 11.0 0.00 0.00 0.00 42 1049.2
20260508154229 65 171 4.0 6.0 0.00 0.00 0.00 46 1049.2
20260508153726 65 236 4.0 7.0 0.00 0.00 0.00 42 1049.2
20260508153223 65 253 6.0 8.0 0.00 0.00 0.00 42 1049.3
20260508152720 65 215 4.0 6.0 0.00 0.00 0.00 41 1049.5
20260508152215 65 259 7.0 9.0 0.00 0.00 0.00 41 1049.7
20260508151712 65 245 6.0 9.0 0.00 0.00 0.00 42 1049.8
20260508151209 64 186 2.0 9.0 0.00 0.00 0.00 42 1049.7
20260508150705 64 228 3.0 7.0 0.00 0.00 0.00 43 1049.8
20260508150202 64 222 4.0 7.0 0.00 0.00 0.00 42 1049.5
20260508145658 64 41 4.0 6.0 0.00 0.00 0.00 43 1049.8
20260508145154 63 254 5.0 9.0 0.00 0.00 0.00 41 1049.8
20260508144652 63 254 5.0 11.0 0.00 0.00 0.00 42 1050.0
20260508144149 63 200 6.0 9.0 0.00 0.00 0.00 41 1049.9
20260508143646 63 241 4.0 4.0 0.00 0.00 0.00 47 1050.0
20260508143144 63 160 4.0 4.0 0.00 0.00 0.00 45 1049.8
20260508142640 62 184 2.0 4.0 0.00 0.00 0.00 45 1049.6
20260508142137 62 157 4.0 7.0 0.00 0.00 0.00 47 1049.7
20260508141633 61 197 2.0 3.0 0.00 0.00 0.00 50 1049.9
20260508141131 61 145 2.0 6.0 0.00 0.00 0.00 51 1049.8
20260508140628 60 164 2.0 4.0 0.00 0.00 0.00 56 1049.9
20260508140125 60 152 3.0 4.0 0.00 0.00 0.00 54 1049.7
20260508135620 59 240 3.0 4.0 0.00 0.00 0.00 56 1049.8
20260508135116 58 164 1.0 4.0 0.00 0.00 0.00 58 1050.2
20260508134613 58 227 3.0 4.0 0.00 0.00 0.00 56 1050.1
20260508134110 57 197 2.0 7.0 0.00 0.00 0.00 58 1049.9
20260508133607 56 198 2.0 3.0 0.00 0.00 0.00 58 1049.9
20260508133104 56 182 4.0 4.0 0.00 0.00 0.00 57 1050.0
20260508132602 55 194 3.0 4.0 0.00 0.00 0.00 57 1049.9
20260508132059 55 162 4.0 6.0 0.00 0.00 0.00 57 1049.8
20260508131554 54 234 4.0 6.0 0.00 0.00 0.00 59 1049.8
20260508131051 53 159 1.0 4.0 0.00 0.00 0.00 62 1049.9
20260508130548 53 214 2.0 3.0 0.00 0.00 0.00 63 1050.0
20260508130044 52 168 2.0 3.0 0.00 0.00 0.00 65 1049.9
20260508125540 52 223 2.0 2.0 0.00 0.00 0.00 64 1049.9
20260508125038 51 197 1.0 3.0 0.00 0.00 0.00 65 1049.6
20260508124536 51 223 2.0 3.0 0.00 0.00 0.00 68 1049.8
20260508124033 50 194 2.0 4.0 0.00 0.00 0.00 69 1049.9
20260508123531 49 163 2.0 4.0 0.00 0.00 0.00 69 1049.8
20260508123027 49 221 3.0 4.0 0.00 0.00 0.00 69 1049.9
20260508122524 49 174 3.0 6.0 0.00 0.00 0.00 70 1049.8
20260508122021 48 208 2.0 6.0 0.00 0.00 0.00 71 1049.8
20260508121520 47 211 1.0 4.0 0.00 0.00 0.00 76 1049.8
20260508121017 47 232 2.0 4.0 0.00 0.00 0.00 73 1049.5
20260508120514 46 186 2.0 4.0 0.00 0.00 0.00 75 1049.8
20260508120013 46 172 2.0 4.0 0.00 0.00 0.00 77 1049.7
20260508115510 45 189 3.0 4.0 0.00 0.00 0.00 77 1049.7
20260508115006 44 113 0.0 3.0 0.00 0.00 0.00 80 1049.7
20260508114503 43 165 2.0 3.0 0.00 0.00 0.00 81 1049.6
20260508113959 42 179 1.0 2.0 0.00 0.00 0.00 84 1049.5
20260508113458 41 132 0.0 0.0 0.00 0.00 0.00 84 1049.3
20260508112954 41 132 0.0 0.0 0.00 0.00 0.00 85 1049.2
20260508112451 40 132 0.0 0.0 0.00 0.00 0.00 86 1049.3
20260508111948 40 132 0.0 0.0 0.00 0.00 0.00 87 1049.3
20260508111445 39 132 0.0 0.0 0.00 0.00 0.00 88 1049.2
20260508110942 39 132 0.0 0.0 0.00 0.00 0.00 90 1049.3
20260508110440 39 132 0.0 0.0 0.00 0.00 0.00 91 1049.4
20260508105939 39 132 0.0 0.0 0.00 0.00 0.00 92 1049.3
20260508105436 39 132 0.0 0.0 0.00 0.00 0.00 90 1049.0
20260508104933 39 132 0.0 0.0 0.00 0.00 0.00 90 1049.3
20260508104431 39 132 0.0 0.0 0.00 0.00 0.00 90 1049.1
20260508103927 39 132 0.0 0.0 0.00 0.00 0.00 91 1049.2
20260508103424 39 132 0.0 0.0 0.00 0.00 0.00 91 1049.1
20260508102921 39 132 0.0 0.0 0.00 0.00 0.00 91 1049.1
20260508102420 39 132 0.0 0.0 0.00 0.00 0.00 91 1049.0
20260508101916 39 132 0.0 0.0 0.00 0.00 0.00 91 1049.0
20260508101414 39 132 0.0 0.0 0.00 0.00 0.00 93 1049.0
20260508100911 38 132 0.0 0.0 0.00 0.00 0.00 93 1049.0
20260508100410 38 132 0.0 0.0 0.00 0.00 0.00 92 1049.0
20260508095910 39 132 0.0 0.0 0.00 0.00 0.00 92 1048.9
20260508095409 38 132 0.0 0.0 0.00 0.00 0.00 90 1049.0
20260508094905 38 132 0.0 0.0 0.00 0.00 0.00 89 1048.8
20260508094402 38 132 0.0 0.0 0.00 0.00 0.00 90 1048.9
20260508093859 38 132 0.0 0.0 0.00 0.00 0.00 89 1049.0
20260508093356 39 132 0.0 0.0 0.00 0.00 0.00 88 1049.1
20260508092854 39 132 0.0 0.0 0.00 0.00 0.00 87 1049.1
20260508092351 39 132 0.0 0.0 0.00 0.00 0.00 87 1049.0
20260508091850 39 132 0.0 0.0 0.00 0.00 0.00 86 1048.9
20260508091345 39 132 0.0 0.0 0.00 0.00 0.00 86 1048.9
20260508090843 40 132 0.0 0.0 0.00 0.00 0.00 86 1049.0
20260508090342 40 132 0.0 0.0 0.00 0.00 0.00 87 1049.1
20260508085843 40 132 0.0 0.0 0.00 0.00 0.00 87 1048.8
20260508085340 40 131 0.0 0.0 0.00 0.00 0.00 86 1048.9
20260508084836 40 153 0.0 0.0 0.00 0.00 0.00 86 1049.0
20260508084333 40 153 0.0 0.0 0.00 0.00 0.00 88 1049.0
20260508083831 40 153 0.0 0.0 0.00 0.00 0.00 86 1049.0
20260508083329 40 153 0.0 0.0 0.00 0.00 0.00 84 1048.9
20260508082828 41 153 0.0 0.0 0.00 0.00 0.00 83 1049.2
20260508082326 41 154 0.0 1.0 0.00 0.00 0.00 83 1048.9
20260508081823 40 196 0.0 1.0 0.00 0.00 0.00 86 1048.9
20260508081319 40 196 1.0 1.0 0.00 0.00 0.00 88 1049.0
20260508080817 40 248 0.0 0.0 0.00 0.00 0.00 87 1049.0
20260508080315 39 248 0.0 0.0 0.00 0.00 0.00 91 1049.0
20260508075811 38 248 0.0 0.0 0.00 0.00 0.00 91 1048.8
20260508075309 38 248 0.0 0.0 0.00 0.00 0.00 90 1048.8
20260508074806 39 248 0.0 0.0 0.00 0.00 0.00 89 1048.9
20260508074302 39 248 0.0 0.0 0.00 0.00 0.00 89 1048.9
20260508073759 40 248 0.0 0.0 0.00 0.00 0.00 89 1049.1
20260508073257 39 248 0.0 0.0 0.00 0.00 0.00 91 1049.0
20260508072753 39 248 0.0 0.0 0.00 0.00 0.00 90 1049.0
20260508072250 40 248 0.0 0.0 0.00 0.00 0.00 89 1048.8
20260508071748 40 248 0.0 0.0 0.00 0.00 0.00 90 1049.1
20260508071246 40 248 0.0 0.0 0.00 0.00 0.00 88 1048.9
20260508070743 40 248 0.0 0.0 0.00 0.00 0.00 88 1048.8
20260508070242 40 251 0.0 0.0 0.00 0.00 0.00 91 1049.1
20260508065738 39 300 0.0 0.0 0.00 0.00 0.00 93 1049.0
20260508065236 39 315 0.0 0.0 0.00 0.00 0.00 93 1049.2
20260508064734 39 315 0.0 0.0 0.00 0.00 0.00 93 1049.1
20260508064232 39 315 0.0 0.0 0.00 0.00 0.00 93 1049.0
20260508063729 39 315 0.0 0.0 0.00 0.00 0.00 93 1049.1
20260508063227 39 315 0.0 0.0 0.00 0.00 0.00 93 1049.1
20260508062724 39 315 0.0 0.0 0.00 0.00 0.00 93 1049.0
20260508062221 39 315 0.0 0.0 0.00 0.00 0.00 93 1049.3
20260508061718 39 315 0.0 0.0 0.00 0.00 0.00 93 1049.0
20260508061215 39 315 0.0 0.0 0.00 0.00 0.00 93 1049.2
20260508060711 39 315 0.0 0.0 0.00 0.00 0.00 92 1049.3
20260508060209 39 315 0.0 0.0 0.00 0.00 0.00 92 1049.2
20260508055704 39 315 0.0 0.0 0.00 0.00 0.00 92 1049.4
20260508055202 40 315 0.0 0.0 0.00 0.00 0.00 91 1049.4
20260508054658 40 315 0.0 0.0 0.00 0.00 0.00 91 1049.5
20260508054156 40 315 0.0 0.0 0.00 0.00 0.00 93 1049.4
20260508053653 39 315 0.0 0.0 0.00 0.00 0.00 93 1049.3
20260508053150 39 315 0.0 0.0 0.00 0.00 0.00 92 1049.6
20260508052647 40 315 0.0 0.0 0.00 0.00 0.00 92 1049.5
20260508052144 40 315 0.0 0.0 0.00 0.00 0.00 91 1049.4
20260508051640 40 315 0.0 0.0 0.00 0.00 0.00 91 1049.5
20260508051136 40 315 0.0 0.0 0.00 0.00 0.00 90 1049.4
20260508050632 40 315 0.0 0.0 0.00 0.00 0.00 89 1049.4
20260508050130 40 315 0.0 0.0 0.00 0.00 0.00 88 1049.7
20260508045625 40 315 0.0 0.0 0.00 0.00 0.00 87 1049.3
20260508045124 41 315 0.0 0.0 0.00 0.00 0.00 86 1049.1
20260508044621 41 315 0.0 0.0 0.00 0.00 0.00 86 1049.2
20260508044117 41 315 0.0 0.0 0.00 0.00 0.00 86 1049.1
20260508043613 42 315 0.0 0.0 0.00 0.00 0.00 85 1049.3
20260508043111 42 315 0.0 0.0 0.00 0.00 0.00 84 1049.4
20260508042608 42 315 0.0 1.0 0.00 0.00 0.00 86 1049.4
20260508042105 42 315 0.0 0.0 0.00 0.00 0.00 86 1049.3
20260508041601 42 314 0.0 0.0 0.00 0.00 0.00 88 1049.3
20260508041058 42 315 0.0 0.0 0.00 0.00 0.00 86 1049.1
20260508040554 42 315 0.0 0.0 0.00 0.00 0.00 85 1049.3
20260508040052 42 315 0.0 0.0 0.00 0.00 0.00 84 1049.3
20260508035549 42 315 0.0 0.0 0.00 0.00 0.00 85 1049.3
20260508035046 42 315 0.0 0.0 0.00 0.00 0.00 86 1049.3
20260508034543 42 315 0.0 0.0 0.00 0.00 0.00 88 1049.1
20260508034040 42 314 0.0 0.0 0.00 0.00 0.00 88 1049.4
20260508033538 43 314 0.0 0.0 0.00 0.00 0.00 87 1049.4
20260508033036 43 314 0.0 0.0 0.00 0.00 0.00 85 1049.4
20260508032532 43 315 0.0 0.0 0.00 0.00 0.00 83 1049.3
20260508032030 43 315 0.0 1.0 0.00 0.00 0.00 82 1049.2
20260508031527 43 315 0.0 0.0 0.00 0.00 0.00 82 1049.3
20260508031022 44 315 0.0 0.0 0.00 0.00 0.00 80 1049.4
20260508030520 44 315 0.0 0.0 0.00 0.00 0.00 79 1049.4
20260508030018 44 315 0.0 0.0 0.00 0.00 0.00 73 1049.5
20260508025513 44 315 0.0 0.0 0.00 0.00 0.00 72 1049.3
20260508025010 45 315 0.0 0.0 0.00 0.00 0.00 72 1049.4
20260508024506 45 315 0.0 0.0 0.00 0.00 0.00 71 1049.2
20260508024003 45 315 0.0 0.0 0.00 0.00 0.00 71 1049.4
20260508023500 45 315 0.0 0.0 0.00 0.00 0.00 72 1049.2
20260508022957 45 315 0.0 0.0 0.00 0.00 0.00 73 1049.2
20260508022453 45 315 0.0 0.0 0.00 0.00 0.00 73 1049.1
20260508021949 46 315 0.0 0.0 0.00 0.00 0.00 72 1049.2
20260508021446 46 315 0.0 0.0 0.00 0.00 0.00 70 1049.1
20260508020942 46 315 0.0 0.0 0.00 0.00 0.00 70 1049.1
20260508020440 46 315 0.0 0.0 0.00 0.00 0.00 71 1049.0
20260508015936 47 315 0.0 0.0 0.00 0.00 0.00 70 1049.2
20260508015434 47 315 0.0 0.0 0.00 0.00 0.00 64 1049.0
20260508014931 48 315 0.0 0.0 0.00 0.00 0.00 64 1048.8
20260508014428 48 315 0.0 0.0 0.00 0.00 0.00 69 1048.8
20260508013923 48 315 0.0 0.0 0.00 0.00 0.00 67 1048.8
20260508013420 49 315 0.0 0.0 0.00 0.00 0.00 66 1048.7
20260508012917 49 315 0.0 0.0 0.00 0.00 0.00 64 1048.7
20260508012414 49 314 0.0 0.0 0.00 0.00 0.00 67 1048.7